FW7161 Weather Reports


Display with metric or nautical units.
time (UTC)temp
F
wind
direction
speed
MPH
gust
MPH
rain 1hr
in
rain 24hr
in
rain mn
in
humidity
%
barometer
mb
20260509023330 53 73 0.0 0.0 0.00 0.00 0.00 61 1020.8
20260509021826 55 103 0.0 0.0 0.00 0.00 0.00 59 1020.8
20260509020325 55 103 0.0 0.0 0.00 0.00 0.00 58 1020.7
20260509014822 57 56 0.0 0.0 0.00 0.00 0.00 55 1020.5
20260509013318 57 92 0.0 0.0 0.00 0.00 0.00 55 1020.3
20260509011814 58 88 0.0 0.0 0.00 0.00 0.00 51 1020.0
20260509010312 60 105 0.0 0.0 0.00 0.00 0.00 50 1020.0
20260509004807 62 118 4.0 5.0 0.00 0.00 0.00 46 1020.2
20260509003305 62 68 1.0 5.0 0.00 0.00 0.00 45 1019.9
20260509001803 63 87 3.0 5.0 0.00 0.00 0.00 44 1020.0
20260509000300 63 46 0.0 2.0 0.00 0.00 0.00 42 1020.0
20260508234756 63 98 3.0 5.0 0.00 0.00 0.00 43 1020.0
20260508233256 64 81 4.0 5.0 0.00 0.00 0.00 43 1019.9
20260508231753 65 76 0.0 0.0 0.00 0.00 0.00 38 1019.9
20260508230253 65 79 0.0 0.0 0.00 0.00 0.00 40 1019.7
20260508224751 66 25 0.0 0.0 0.00 0.00 0.00 41 1019.8
20260508223249 65 337 0.0 0.0 0.00 0.00 0.00 41 1020.0
20260508221745 64 98 1.0 5.0 0.00 0.00 0.00 42 1020.3
20260508220240 65 80 3.0 5.0 0.00 0.00 0.00 41 1020.3
20260508214736 65 51 4.0 6.0 0.00 0.00 0.00 42 1019.9
20260508213232 65 60 2.0 6.0 0.00 0.00 0.00 42 1019.9
20260508211732 65 94 1.0 3.0 0.00 0.00 0.00 41 1020.3
20260508210229 65 55 0.0 1.0 0.00 0.00 0.00 43 1020.3
20260508204724 64 96 1.0 5.0 0.00 0.00 0.00 43 1020.4
20260508203219 64 77 0.0 1.0 0.00 0.00 0.00 40 1020.3
20260508201715 65 63 0.0 0.0 0.00 0.00 0.00 40 1020.4
20260508200210 66 64 0.0 2.0 0.00 0.00 0.00 35 1020.8
20260508194705 64 340 0.0 1.0 0.00 0.00 0.00 37 1020.8
20260508193202 65 46 0.0 0.0 0.00 0.00 0.00 35 1020.5
20260508191659 62 327 0.0 0.0 0.00 0.00 0.00 39 1020.9
20260508190155 64 43 2.0 5.0 0.00 0.00 0.00 37 1020.8
20260508184652 64 320 3.0 7.0 0.00 0.00 0.00 38 1020.8
20260508183147 63 335 0.0 1.0 0.00 0.00 0.00 38 1021.3
20260508181642 62 35 1.0 2.0 0.00 0.00 0.00 41 1021.4
20260508180138 62 17 0.0 0.0 0.00 0.00 0.00 40 1021.4
20260508174635 60 356 2.0 5.0 0.00 0.00 0.00 39 1021.5
20260508173131 62 358 4.0 6.0 0.00 0.00 0.00 41 1021.6
20260508171627 60 2 3.0 6.0 0.00 0.00 0.00 42 1021.9
20260508170124 60 72 1.0 1.0 0.00 0.00 0.00 46 1022.0
20260508164620 58 1 2.0 5.0 0.00 0.00 0.00 47 1022.0
20260508163117 56 12 3.0 7.0 0.00 0.00 0.00 50 1022.0
20260508161614 56 330 3.0 7.0 0.00 0.00 0.00 53 1022.1
20260508160112 55 1 5.0 8.0 0.00 0.00 0.00 54 1022.2
20260508154609 52 21 3.0 5.0 0.00 0.00 0.00 64 1022.0
20260508153105 50 18 4.0 5.0 0.00 0.00 0.00 67 1022.0
20260508151600 51 346 4.0 8.0 0.00 0.00 0.00 66 1022.1
20260508150056 50 8 3.0 5.0 0.00 0.00 0.00 67 1022.0
20260508144553 49 350 5.0 7.0 0.00 0.00 0.00 69 1022.2
20260508143050 48 358 5.0 7.0 0.00 0.00 0.00 72 1022.2
20260508141546 47 0 7.0 9.0 0.00 0.00 0.00 77 1022.2
20260508140043 46 297 5.0 6.0 0.00 0.00 0.00 77 1022.4
20260508134543 46 21 4.0 6.0 0.00 0.00 0.00 79 1022.2
20260508133041 47 4 3.0 6.0 0.00 0.00 0.00 77 1021.9
20260508131536 48 358 4.0 5.0 0.00 0.00 0.00 66 1021.3
20260508130032 49 4 1.0 3.0 0.00 0.00 0.00 60 1021.0
20260508124530 47 280 0.0 0.0 0.00 0.00 0.00 64 1020.7
20260508123027 44 284 0.0 0.0 0.00 0.00 0.00 69 1020.5
20260508121525 41 283 0.0 0.0 0.00 0.00 0.00 73 1020.3
20260508120024 41 277 0.0 0.0 0.00 0.00 0.00 73 1020.2
20260508114520 40 293 0.0 0.0 0.00 0.00 0.00 75 1020.3
20260508113017 38 297 0.0 0.0 0.00 0.00 0.00 81 1020.2
20260508111513 37 306 0.0 0.0 0.00 0.00 0.00 79 1020.3
20260508110008 39 30 0.0 0.0 0.00 0.00 0.00 79 1020.0
20260508104505 41 284 0.0 0.0 0.00 0.00 0.00 74 1020.0
20260508103001 42 296 0.0 0.0 0.00 0.00 0.00 74 1019.8
20260508101459 38 273 0.0 0.0 0.00 0.00 0.00 83 1020.0
20260508095956 37 304 0.0 0.0 0.00 0.00 0.00 86 1019.8
20260508094454 37 292 0.0 0.0 0.00 0.00 0.00 86 1020.2
20260508092951 40 297 0.0 0.0 0.00 0.00 0.00 83 1019.9
20260508091449 43 333 0.0 0.0 0.00 0.00 0.00 77 1019.9
20260508085946 42 347 0.0 0.0 0.00 0.00 0.00 78 1020.2
20260508084443 45 348 0.0 0.0 0.00 0.00 0.00 75 1020.0
20260508082938 46 353 1.0 1.0 0.00 0.00 0.00 73 1020.7
20260508081435 47 352 1.0 2.0 0.00 0.00 0.00 71 1020.8
20260508075932 47 356 1.0 3.0 0.00 0.00 0.00 69 1020.8
20260508074430 48 327 0.0 0.0 0.00 0.00 0.00 68 1020.8
20260508072927 48 7 0.0 0.0 0.00 0.00 0.00 67 1020.8
20260508071425 48 359 0.0 0.0 0.00 0.00 0.00 66 1021.0
20260508065923 49 343 0.0 0.0 0.00 0.00 0.00 65 1021.1
20260508064422 49 343 0.0 0.0 0.00 0.00 0.00 65 1020.9
20260508062920 49 10 0.0 0.0 0.00 0.00 0.00 64 1020.7
20260508061418 49 9 0.0 0.0 0.00 0.00 0.00 64 1020.9
20260508055919 48 329 0.0 0.0 0.00 0.00 0.00 67 1020.9
20260508054415 47 336 0.0 0.0 0.00 0.00 0.00 69 1020.9
20260508052913 49 334 0.0 0.0 0.00 0.00 0.00 61 1020.8
20260508051408 50 322 0.0 0.0 0.00 0.00 0.00 61 1020.3
20260508045909 51 14 0.0 0.0 0.00 0.00 0.00 60 1020.5
20260508044407 51 57 0.0 0.0 0.00 0.00 0.00 60 1020.7
20260508042902 53 351 1.0 3.0 0.00 0.00 0.00 54 1020.9
20260508041359 54 342 3.0 6.0 0.00 0.00 0.00 51 1020.9
20260508035856 53 332 0.0 0.0 0.00 0.00 0.00 57 1020.8
20260508034353 55 324 0.0 0.0 0.00 0.00 0.00 55 1020.4
20260508032851 54 309 0.0 0.0 0.00 0.00 0.00 54 1020.4
20260508031348 53 318 0.0 0.0 0.00 0.00 0.00 57 1020.2
20260508025844 53 313 0.0 0.0 0.00 0.00 0.00 56 1019.9